星链-4389 (STARLINK-4389 )

导读

STARLINK-4389是美国太空探索技术公司SpaceX星链星座中的一员,于2022年8月12日发射升空,属于星链互联网卫星网络的组成部分。星链项目旨在构建全球卫星互联网星座,为全球各地提供高速低延迟的宽带互联网接入服务,该卫星进一步扩充了星链星座的服务覆盖能力。

Basic Information
目录编号:
53475
目录名称:
STARLINK-4389
国际标识:
2022-099L
轨道中心:
EARTH
卫星名称:
星链-4389
卫星全名:
星链-4389 (STARLINK-4389 )
卫星状态:
在轨 (已飞行1484 天)
发射日期:
2022-08-12 UTC
国别 :
美国 (US)
星等 :
--
Orbit Information
数据来源 国际轨道数据
星历时间: 2026-09-03T15:52:04+0800
22小时前
查看轨道信息
半长轴: 6833.227km
偏心率: 0.0000611
轨道倾角: 97.519°
近地点辐角 113.447°
升交点赤经 13.193°
平近点角 246.684°
近地点: 454.672km
远地点: 455.508km
周期: 93.691分钟
每日圈数: 15.369651
Detailed Information
固有亮度:
5
最大亮度:
2.5
卫星平台:
Starlink v1.5
覆盖范围:
全球
运营商:
太空探索技术公司
运营商所在国:
美国
制造商(研发单位):
太空探索技术公司
制造商所在国:
美国
使用方式:
暂无
Satellite Introduction
星链(Starlink)计划是由太空探索技术公司(SpaceX)提出的一个巨型低轨卫星互联网星座项目,计划在2019年至2024年间在太空搭建由约1.2万颗卫星组成的“星链”网络,其中1584颗将部署在地球上空550千米处的近地轨道,并从2020年开始工作。该卫星仍在工作。
2D Orbit Map
3D Orbit Map
Orbit Altitude Analysis Chart
Orbit Inclination Analysis Chart
Orbit Comprehensive Analysis Chart
View Comprehensive Chart
Conjunction Data List
Event ID Objects TCA Miss Dist (km) Collision Risk Probability Collision Risk Index (CRI) Action
CDM_260903-151005-347506-470021
2026-09-03T
15:10:44+0000
2.162 km
极远距离
2.345877E-6 低风险 0.42
CDM_260829-184305-347505-420921
2026-08-29T
18:43:14+0000
2.096 km
极远距离
2.114481E-6 低风险 0.42
CDM_260903-171405-260205-347522
2026-09-03T
17:14:47+0000
2.753 km
极远距离
1.499131E-6 低风险 0.39